Location: Hamilton
(37.7830°S, 175.2830°E)
Time: 15:47:51
(UTC+13:00)

ISS - Pass Details

Date: 01 February 2019
Orbit: 403 x 411 km, 51.6° (Epoch: 17 February)

Event Time Altitude Azimuth Distance (km) Brightness Sun altitude
Exits shadow 03:47:39 18° 98° (E) 1,115 -1.2 -26.4°
Drops below altitude 10° 03:48:46 10° 110° (ESE) 1,494 -0.3 -26.2°
Sets 03:51:01 0° 120° (ESE) 2,362 1.1 -26.0°
